sat.trackr.live / text

‹ back to catalog

STARLINK-34346

NORAD 64155 · 2025-112K

PAYLOAD ACTIVE UNKNOWN

§ Identity

Operator
Country
US
Launch date
2025-05-27
Launch site
AFWTR
Launch vehicle
Mass (kg)
RCS (m²)

Purposes: comms

External: N2YO · Heavens-Above · Gunter

§ Orbital elements

Epoch: 2026-05-25T03:10:04.627200Z

Period
95.64 min
Inclination
97.4479°
Eccentricity
0.0001862
Mean motion
15.05646281 rev/d
Perigee alt
548.2 km
Apogee alt
550.8 km
Semi-major
6,927.7 km
B*
-4.3540e-6
RAAN
196.5495°
Arg perigee
132.7456°
Mean anomaly
227.3928°
Rev number
5,481

§ Raw data

STARLINK-343461 64155U 25112K   26145.13199800 -.00000121  00000+0 -43540-5 0  99972 64155  97.4479 196.5495 0001862 132.7456 227.3928 15.05646281 54816

JSON: /api/v1/satellites/64155 · /tle

For live sub-satellite position, see the globe view (requires WebGL).

§ Visibility from observer

Set your observer location to see the next 7 days of passes ≥ 10°. The values pass through the URL so the page stays shareable.

No JS? Fill the form by hand. The geolocation button needs JavaScript.